Погода в Завальском

Россия / Белгородская область     50°42′04″N   38°13′46″E
темп.,
°C
ветер,
м/с
пор.,
м/с
влажн.,
%
обл.,
%
осадки,
мм/ч
давл.,
гПа
погр.,
м
16 мая, вс
вс1600:00+15ююз11780 0.0 101311
03:00+14юз11794 0.0 101411
06:00+15вюв227878 0.0 101418
09:00+20в226687 0.0 1014389
12:00+24в3354100 0.0 10141329
15:00+25всв3452100 0.0 10131642
18:00+23св476997 0.0 1011248
21:00+18всв36876 0.1 101191
17 мая, пн
пн1700:00+16в477761 0.0 101095
03:00+15в5137317 0.0 1009211
06:00+15в3127514 0.0 1009218
09:00+21вюв616580 0.0 1009633
12:00+25вюв916515 0.0 10081546
15:00+26юв714531 0.0 10071854
18:00+23ююв6126272 0.0 1007634
21:00+18юв497724 0.0 1008156
18 мая, вт
вт1800:00+17юв368236 0.0 100899
03:00+15ю379249 0.0 1008122
06:00+16ююз269182 0.0 1008267
09:00+19ююз457098 0.0 1008598
12:00+21ю4564100 0.0 1008897
15:00+20ю4667100 0.0 1008940
18:00+20ююв4773100 0.0 1008996
21:00+16ююв3587100 0.0 100776
19 мая, ср
ср1900:00+14ююв3592100 0.0 100781
03:00+13ю2393100 0.0 100758
06:00+14ю259347 0.0 1006184
09:00+17ю688184 0.3 1006875
12:00+14ююз4690100 0.7 1007454
15:00+14юз598989 3.4 1008730
18:00+14юз710785 0.4 10081117
21:00+12ююз61182100 0.4 1009762
20 мая, чт
чт2000:00+12ююз71379100 0.1 10091106
03:00+11юз71183100 0.3 1010885
06:00+10юз81381100 0.0 1011874
09:00+14зюз8147114 0.0 10131259
12:00+16юз6965100 0.1 10141579
15:00+19юз5754100 0.1 10151805
18:00+19ююз2464100 0.0 1015380
21:00+15в2267100 0.0 101517